GW0232 Weather Reports


time (UTC)temp
C
wind
direction
speed
KPH
gust
KPH
rain 1hr
cm
rain 24hr
cm
rain mn
cm
humidity
%
barometer
mb
20260504081528 12 210 1.6 3.2 0.00 0.00 0.00 68 1000.6
20260504044531 13 82 1.6 4.8 0.00 0.00 0.00 60 1002.8
20260504043042 13 0 0.0 4.8 0.00 0.00 0.00 60 1002.9
20260504041535 13 0 0.0 1.6 0.00 0.00 0.00 60 1003.1
20260504040030 13 0 0.0 1.6 0.00 0.00 0.00 60 1003.2
20260504034530 13 0 0.0 1.6 0.00 0.00 0.00 58 1003.4
20260504033031 14 254 0.0 1.6 0.00 0.00 0.00 57 1003.5
20260504031530 15 253 0.0 1.6 0.00 0.00 0.00 57 1003.6
20260504030030 15 0 0.0 1.6 0.00 0.00 0.00 54 1003.7
20260504024529 16 233 0.0 3.2 0.00 0.00 0.00 50 1003.6
20260504023031 16 0 0.0 3.2 0.00 0.00 0.00 50 1003.8
20260504021527 17 262 1.6 3.2 0.00 0.00 0.00 49 1003.9
20260504020028 17 262 1.6 3.2 0.00 0.00 0.00 46 1003.9
20260504014537 18 254 0.0 1.6 0.00 0.00 0.00 42 1004.1
20260504013029 20 243 0.0 1.6 0.00 0.00 0.00 40 1004.2
20260504011529 20 0 0.0 3.2 0.00 0.00 0.00 37 1004.5
20260504010028 20 0 0.0 1.6 0.00 0.00 0.00 38 1004.7
20260504004528 21 138 0.0 1.6 0.00 0.00 0.00 36 1004.9
20260504003033 21 97 0.0 3.2 0.00 0.00 0.00 34 1005.2
20260504001536 21 0 0.0 1.6 0.00 0.00 0.00 36 1005.4
20260504000031 21 0 0.0 3.2 0.00 0.00 0.00 35 1005.7
20260503234531 21 0 0.0 4.8 0.00 0.00 0.00 33 1006.1
20260503233029 21 0 0.0 12.9 0.00 0.00 0.00 34 1006.4
20260503231530 21 0 0.0 4.8 0.00 0.00 0.00 32 1006.6
20260503230034 21 240 0.0 4.8 0.00 0.00 0.00 32 1006.9
20260503224534 21 51 0.0 4.8 0.00 0.00 0.00 33 1007.1
20260503223029 21 0 0.0 4.8 0.00 0.00 0.00 33 1007.4
20260503221527 21 57 0.0 4.8 0.00 0.00 0.00 32 1007.7
20260503220031 22 0 0.0 1.6 0.00 0.00 0.00 32 1007.9
20260503214529 22 0 0.0 4.8 0.00 0.00 0.00 33 1008.1
20260503213030 22 302 1.6 4.8 0.00 0.00 0.00 32 1008.3
20260503211529 23 0 0.0 6.4 0.00 0.00 0.00 29 1008.8
20260503210033 22 33 0.0 3.2 0.00 0.00 0.00 34 1009.1
20260503204529 23 143 0.0 4.8 0.00 0.00 0.00 32 1009.3
20260503203032 23 15 1.6 6.4 0.00 0.00 0.00 31 1009.7
20260503201528 23 353 0.0 6.4 0.00 0.00 0.00 30 1010.2
20260503200028 23 62 0.0 4.8 0.00 0.00 0.00 33 1010.4
20260503194533 22 43 0.0 4.8 0.00 0.00 0.00 32 1010.9
20260503193032 22 342 3.2 6.4 0.00 0.00 0.00 29 1011.0
20260503191536 23 301 0.0 6.4 0.00 0.00 0.00 30 1011.3
20260503190030 22 55 1.6 4.8 0.00 0.00 0.00 32 1011.7
20260503184530 22 0 1.6 6.4 0.00 0.00 0.00 30 1012.1
20260503183032 21 278 1.6 6.4 0.00 0.00 0.00 31 1012.7
20260503181530 21 274 0.0 4.8 0.00 0.00 0.00 31 1013.0
20260503180042 21 8 1.6 6.4 0.00 0.00 0.00 31 1013.2
20260503174529 21 113 0.0 4.8 0.00 0.00 0.00 32 1013.5
20260503173030 21 275 1.6 8.0 0.00 0.00 0.00 32 1013.9
20260503171531 20 0 1.6 8.0 0.00 0.00 0.00 34 1014.0